Regional Weather Roundup
Issued by NWS

Home | Current Version | Previous Version | Text Only | Print | Product List | Glossary Off
Versions: 1 2 3 4 5 6 7 8 9 10 11 12 13 14 15 16 17 18 19 20 21 22 23 24 25 26 27 28 29 30 31 32 33 34 35 36 37 38 39 40 41 42 43 44 45 46 47 48 49 50

623
ASUS45 KCYS 170610
RWRWY

WYOMING REGIONAL WEATHER ROUNDUP
NATIONAL WEATHER SERVICE CHEYENNE WY
1100 PM MST TUE JAN 16 2018

NOTE:  "FAIR" INDICATES FEW OR NO CLOUDS BELOW 12,000 FEET
WITH NO SIGNIFICANT WEATHER AND/OR OBSTRUCTIONS TO VISIBILITY.

WYZ001-170700-
YELLOWSTONE NATIONAL PARK

CITY           SKY/WX    TMP DP  RH WIND       PRES   REMARKS
LK YELLOWSTONE   N/A     -1  -5  82 CALM      30.34S
6HR MIN TEMP:  -1; 6HR MAX TEMP:   9;

W YELLOWSTONE  NOT AVBL

$$
WYZ002>013-054>058-071-098>099-170700-
NORTHERN WYOMING

CITY           SKY/WX    TMP DP  RH WIND       PRES   REMARKS
JACKSON        CLOUDY     6   3  87 NE6       30.38R WCI  -4
CODY           FAIR      13   9  84 S6        30.19S WCI   4
GREYBULL       FAIR       2  -1  88 SE5       30.25S WCI  -8
6HR MIN TEMP:  -1; 6HR MAX TEMP:  11;

WORLAND        FAIR       1  -1  91 CALM      30.24R
6HR MIN TEMP:  -1; 6HR MAX TEMP:  15;

SHERIDAN       FAIR       7   0  73 CALM      30.17R
6HR MIN TEMP:   1; 6HR MAX TEMP:   9;

BUFFALO        FAIR      36   0  21 SW5       30.14R WCI  32
6HR MIN TEMP:  26; 6HR MAX TEMP:  39;

GILLETTE         N/A    N/A N/A N/A MISG      30.16R
HULETT         FAIR      25   0  33 SW6       30.16S WCI  18
NEWCASTLE      FAIR      12   0  57 N3        30.23S

$$
WYZ014>020-022>026-101>103-170700-
CENTRAL WYOMING

CITY           SKY/WX    TMP DP  RH WIND       PRES   REMARKS
BIG PINEY      FAIR       7   3  84 NW3       30.31R
6HR MIN TEMP:   6; 6HR MAX TEMP:  25;

PINEDALE       FAIR       3   0  85 NW5       30.31F WCI  -6
DUBOIS         FAIR      30  12  47 NW16      30.23S WCI  19
LANDER         FAIR      12   9  87 NW5       30.23R WCI   4
6HR MIN TEMP:   6; 6HR MAX TEMP:  20;

RIVERTON       FAIR      12   7  80 CALM      30.25R
6HR MIN TEMP:   9; 6HR MAX TEMP:  18;

CASPER         FAIR      29   4  34 SW18      30.19R WCI  16
6HR MIN TEMP:  28; 6HR MAX TEMP:  33;

DOUGLAS        FAIR       7   3  84 CALM      30.20S
6HR MIN TEMP:   7; 6HR MAX TEMP:  19;


$$
WYZ021-027>030-104>119-170700-
SOUTHERN WYOMING

CITY           SKY/WX    TMP DP  RH WIND       PRES   REMARKS
EVANSTON       CLOUDY    27  17  66 SW7       30.31S WCI  19
6HR MIN TEMP:  25; 6HR MAX TEMP:  34;

FORT BRIDGER   FAIR      32  18  57 W8        30.32S WCI  25
ROCK SPRINGS   FAIR      23   6  48 SW6       30.30R WCI  16
6HR MIN TEMP:  18; 6HR MAX TEMP:  27;

DIXON            N/A     12   4  72 CALM      30.37R
RAWLINS        FAIR      22   1  40 SW9       30.27S WCI  12
6HR MIN TEMP:  18; 6HR MAX TEMP:  30;

SARATOGA       FAIR      12   1  62 W3        30.29R
LARAMIE        FAIR      10  -4  53 CALM      30.21S
6HR MIN TEMP:   9; 6HR MAX TEMP:  27;

CHEYENNE       FAIR      16   4  59 SW6       30.19F WCI   7
6HR MIN TEMP:  15; 6HR MAX TEMP:  23;

TORRINGTON     FAIR       6   3  87 NW3       30.23S
6HR MIN TEMP:   6; 6HR MAX TEMP:  16;


$$




USA.gov is the U.S. government's official web portal to all federal, state and local government web resources and services.